Location: Six Mile Lake
(44.9000°N, 79.7170°W)
Time: 13:06:29
(UTC-04:00)

O/OREOS (USA 219) - Pass Details

Date: 06 July 2022
Orbit: 621 x 646 km, 72.0° (Epoch: 22 May)

Event Time Altitude Azimuth Distance (km) Brightness Sun altitude
Rises 01:47:30 0° 323° (NW) 2,965 ? -22.2°
Reaches altitude 10° 01:50:12 10° 308° (NW) 2,051 ? -22.1°
Enters shadow 01:53:29 22° 262° (W) 1,428 ? -22.1°
